Regional Weather Roundup
Issued by NWS

Home | Current Version | Previous Version | Text Only | Print | Product List | Glossary On
Versions: 1 2 3 4 5 6 7 8 9 10 11 12 13 14 15 16 17 18 19 20 21 22 23 24 25 26 27 28 29 30 31 32 33 34 35 36 37 38 39 40 41 42 43 44 45 46 47 48 49 50
000
ASUS45 KPSR 251610
RWRAZ

ARIZONA HOURLY REGIONAL WEATHER ROUNDUP
NATIONAL WEATHER SERVICE PHOENIX AZ
900 AM MST MON JUL 25 2016

NOTE: FAIR INDICATES FEW OR NO CLOUDS BELOW 12,000 FEET WITH NO
SIGNIFICANT WEATHER AND/OR OBSTRUCTIONS TO VISIBILITY.

AZZ001>003-036-251700-
NORTHWEST ARIZONA

CITY           SKY/WX    TMP DP  RH WIND       PRES   REMARKS
KINGMAN        SUNNY     87  55  33 SW13      30.10R
$$

AZZ004>008-015-016-018-251700-
NORTH CENTRAL ARIZONA

CITY           SKY/WX    TMP DP  RH WIND       PRES   REMARKS
GRAND CANYON   PTSUNNY   75  51  43 SW6       30.36R
WILLIAMS       MOSUNNY   79  54  41 SW7       30.43S
PRESCOTT       MOSUNNY   81  60  48 E9        30.24S
FLAGSTAFF      SUNNY     74  51  44 SW6       30.37S
PAYSON         SUNNY     79  57  47 VRB3      30.28R
PAGE           SUNNY     83  47  28 W5        30.15S
$$

AZZ009>014-017-251700-
NORTHEAST ARIZONA

CITY           SKY/WX    TMP DP  RH WIND       PRES   REMARKS
WINSLOW        SUNNY     86  51  29 N5        30.21F
SAINT JOHNS    MOSUNNY   80  50  34 VRB3      30.27F
WINDOW ROCK    PTSUNNY   75  51  43 VRB3      30.36S
SHOW LOW       MOSUNNY   72  50  46 SW13      30.34S
$$

AZZ023-251700-
GREATER PHOENIX AREA

CITY           SKY/WX    TMP DP  RH WIND       PRES   REMARKS
PHOENIX        PTSUNNY   93  60  33 W9        29.96R
BUCKEYE        SUNNY     91  59  33 CALM      29.98S
GLENDALE       MOSUNNY   95  61  31 VRB6      29.98S
LUKE AFB       SUNNY     93  60  33 VRB1      29.96S
DEER VALLEY    SUNNY     92  59  33 CALM      29.98F
SCOTTSDALE     SUNNY     91  60  35 CALM      30.00S
MESA-FALCON    MOSUNNY  N/A N/A N/A S9        29.96
MESA-GATEWAY   MOSUNNY   91  61  35 S3        30.00R
CHANDLER       SUNNY     93  61  33 W6        29.98S
$$

AZZ027-028-251700-
SOUTHWEST MARICOPA COUNTY AND PINAL COUNTY

CITY           SKY/WX    TMP DP  RH WIND       PRES   REMARKS
CASA GRANDE    PTSUNNY   93  61  33 W3        30.01S
GILA BEND      SUNNY     94  60  32 S3        29.95S
$$

AZZ503-504-507>509-251700-
SOUTHEAST ARIZONA

CITY           SKY/WX    TMP DP  RH WIND       PRES   REMARKS
TUCSON         PTSUNNY   87  58  37 SE7       30.10R
DAVIS-MONTHAN  PTSUNNY   85  58  39 S6        30.09R
RYAN FIELD     SUNNY     86  59  39 N3        30.08R
NOGALES        MOSUNNY   80  59  48 CALM      30.17S
SIERRA VISTA   CLOUDY    79  55  43 VRB3      30.22F
DOUGLAS        CLOUDY    72  63  73 CALM      30.19S
SAFFORD        CLOUDY    82  57  42 CALM      30.11R
$$

AZZ020-021-025-026-031-251700-
SOUTHWEST ARIZONA

CITY           SKY/WX    TMP DP  RH WIND       PRES   REMARKS
YUMA           MOSUNNY   92  70  48 SE12      29.90R
$$

CAZ031-033-041-043-047-048-061-251700-
SOUTHERN CALIFORNIA

CITY           SKY/WX    TMP DP  RH WIND       PRES   REMARKS
DOWNTOWN L.A.  SUNNY     77  66  68 CALM      29.97R
L.A. AIRPORT   MOSUNNY   77  65  66 CALM      29.98R
SAN DIEGO      CLOUDY    69  66  90 NW6       29.98S FOG
BURBANK        SUNNY     79  54  41 SE5       29.99R
ONTARIO        MOSUNNY   83  53  35 VRB3      30.00R
RIVERSIDE      SUNNY     80  57  45 CALM      30.00R
PALM SPRINGS   MOSUNNY   90  71  53 VRB3      29.94S
EL CENTRO NAS  CLOUDY    89  75  63 CALM      29.88F
IMPERIAL       CLOUDY    89  78  70 CALM      29.86F HX 103
BLYTHE         PTSUNNY   92  71  50 S14       29.90S
NEEDLES        MOSUNNY   98  62  30 VRB7      29.91R
$$

NVZ020-UTZ003-251700-
SOUTHERN NEVADA-UTAH

CITY           SKY/WX    TMP DP  RH WIND       PRES   REMARKS
LAS VEGAS      MOSUNNY   97  34  11 VRB6      29.91R
SALT LAKE CITY MOSUNNY   86  38  18 E7        30.08S
$$

NMZ009-TXZ055-251700-
NEW MEXICO-WEST TEXAS

CITY           SKY/WX    TMP DP  RH WIND       PRES   REMARKS
ALBUQUERQUE    MOSUNNY   83  52  34 NE5       30.27S
EL PASO        MOSUNNY   88  55  32 N8        30.12F
$$


........................KEY........................
SKY/WX - SKY CONDITION/WEATHER
TMP    - TEMPERATURE IN FAHRENHEIT
DP     - DEW POINT IN FAHRENHEIT
RH     - RELATIVE HUMIDITY IN PERCENT
WIND   - DIRECTION AND SPEED IN MILES PER HOUR (MPH)
VRB    - VARIABLE WIND DIRECTION
PRES   - MEAN SEA LEVEL PRESSURE IN INCHES OF MERCURY
         F - FALLING PRESSURE   R - RISING PRESSURE
         S - STEADY PRESSURE
VSB    - VISIBILITY IN MILES
HX     - HEAT INDEX IN FAHRENHEIT
WCI    - WIND CHILL INDEX IN FAHRENHEIT
TC     - TEMPERATURE IN CELSIUS WHICH IS ALSO KNOWN AS
         TEMPERATURE IN CENTIGRADE
AFB    - AIR FORCE BASE
         LUKE AFB IS LUKE AIR FORCE BASE
         DAVIS-MONTHAN IS DAVIS-MONTHAN AIR FORCE BASE
NAS    - NAVAL AIR STATION
         EL CENTRO NAS IS EL CENTRO NAVAL AIR STATION
N/A    - NOT AVAILABLE




USA.gov is the U.S. government's official web portal to all federal, state and local government web resources and services.